Edwards, CA

1:25 PM PST on December 07, 2016 (GMT -0800)
Edwards AFB North Base

Weather History for K9L2 - November, 2012

Change the Weather History Date:

Monday, November 5, 2012

  Actual Average (KEDW) Record (KEDW)
Temperature  
Mean Temperature 60 °F -  
Max Temperature 82 °F 66 °F 82 °F (2012)
Min Temperature 39 °F 37 °F 28 °F (2015)
Degree Days  
Heating Degree Days 4    
Growing Degree Days 10 (Base 50)    
Moisture  
Dew Point 17 °F    
Average Humidity 21    
Maximum Humidity 31    
Minimum Humidity 10    
Precipitation  
Precipitation 0.00 in - - ()
Sea Level Pressure  
Sea Level Pressure 30.16 in    
Wind  
Wind Speed 2 mph (West)    
Max Wind Speed 7 mph    
Max Gust Speed -    
Visibility 10 miles    
Events      
Averages and records for this station are not official NWS values.
T = Trace of Precipitation, MM = Missing Value Source: NWS Daily Summary

Daily Weather History Graph

Daily Weather History Graph

Search for Another Location

Airport or City:

Trip Planner

Search our weather history database for the weather conditions in past years. The results will help you decide how hot, cold, wet, or windy it might be!

Date:

Astronomy

Nov. 05, 2012 Rise Set
Actual Time 6:16 AM PST 4:52 PM PST
Civil Twilight 5:50 AM PST 5:19 PM PST
Nautical Twilight 5:20 AM PST 5:49 PM PST
Astronomical Twilight 4:50 AM PST 6:19 PM PST
Moon 10:34 PM PST (11/5) 11:38 AM PST (11/5)
Length of Visible Light 11h 28m
Length of Day
10h 36m
Waning Gibbous, 62% of the Moon is Illuminated
Nov 5
Waning Gibbous
Nov 6
Last Quarter
Nov 13
New
Nov 20
First Quarter
Nov 28
Full

Hourly Weather History & Observations

Time (PST) Temp. Windchill Dew Point Humidity Pressure Visibility Wind Dir Wind Speed Gust Speed Precip Events Conditions
12:55 AM 46.9 °F - 14.0 °F 27% 30.19 in 10.0 mi NW 6.9 mph - N/A   Clear
1:55 AM 46.9 °F - 12.0 °F 24% 30.19 in 10.0 mi Calm Calm - N/A   Clear
2:55 AM 43.0 °F 41.3 °F 12.0 °F 28% 30.19 in 10.0 mi West 3.5 mph - N/A   Clear
3:55 AM 41.0 °F - 10.9 °F 29% 30.19 in 10.0 mi Calm Calm - N/A   Clear
4:55 AM 39.9 °F - 10.9 °F 31% 30.21 in 10.0 mi Calm Calm - N/A   Clear
5:55 AM 39.9 °F - 10.9 °F 31% 30.22 in 10.0 mi Calm Calm - N/A   Clear
6:55 AM 44.1 °F - 14.0 °F 30% 30.24 in 10.0 mi Calm Calm - N/A   Clear
8:55 AM - - - N/A% - 10.0 mi Calm Calm - N/A   Unknown
9:55 AM 66.0 °F - 17.1 °F 15% 30.23 in 10.0 mi Calm Calm - N/A   Clear
10:55 AM 72.0 °F - 17.1 °F 12% 30.20 in 10.0 mi Calm Calm - N/A   Clear
11:55 AM 77.0 °F - 19.0 °F 11% 30.17 in 10.0 mi South 4.6 mph - N/A   Clear
12:55 PM 79.0 °F - 19.0 °F 11% 30.14 in 10.0 mi Calm Calm - N/A   Clear
1:55 PM 81.0 °F - 19.9 °F 10% 30.12 in 10.0 mi SSE 4.6 mph - N/A   Clear
2:55 PM 82.0 °F - 21.0 °F 10% 30.11 in 10.0 mi SSE 4.6 mph - N/A   Clear
3:55 PM 82.0 °F - 21.0 °F 10% 30.10 in 10.0 mi Calm Calm - N/A   Clear
4:55 PM 78.1 °F - 21.0 °F 12% 30.11 in 10.0 mi Calm Calm - N/A   Clear
5:55 PM 64.9 °F - 18.0 °F 16% 30.14 in 10.0 mi WNW 6.9 mph - N/A   Clear
6:55 PM 61.0 °F - 18.0 °F 19% 30.14 in 10.0 mi NNW 5.8 mph - N/A   Clear
7:55 PM 57.0 °F - 17.1 °F 21% 30.15 in 10.0 mi Calm Calm - N/A   Clear
8:55 PM 55.0 °F - 19.0 °F 24% 30.15 in 10.0 mi WNW 4.6 mph - N/A   Clear
9:55 PM 54.0 °F - 19.0 °F 25% 30.14 in 10.0 mi Calm Calm - N/A   Clear
10:55 PM 54.0 °F - 19.9 °F 26% 30.14 in 10.0 mi Calm Calm - N/A   Clear
11:55 PM 48.0 °F - 17.1 °F 29% 30.14 in 10.0 mi Calm Calm - N/A   Clear